Terug naar catalogus

STARLINK-32197

ActiefCommunicatieVLEO
NORAD 60416·PAYLOAD·🇺🇸 United States

Gelanceerd Aug 10, 2024 vanaf Cape Canaveral Space Force Station

Loading…

Volgende Passages (komende 24 uur)

TLE

VersSource: CelesTrak SupGP

Epoch: Sep 14, 2026, 21:16 UTC

1 60416C 24141U   26257.88659722  .00019679  00000+0  63301-3 0  2572
2 60416  53.1586  72.4968 0001274  85.3939   7.7694 15.31683091    15

Volg STARLINK-32197 in realtime met AllMySat

Download on the App Store